NOAA 16 DEB, 42422

Orbit data source: Space-Track

NOAA 16 DEB, 42422 is space debris in SSO originally from a launch on Thu, 21 Sep 2000 UTC launched from the Air Force Western Test Range (AFWTR). Debris objects in space refer to the collection of defunct objects orbiting the Earth. Examples of debris include non-operational satellites, rocket bodies, and fragments generated from explosions, collisions, or faulty payload assembly.

Loading next visibility...
Identifier
42422, 2000-055TS
Orbit
SSO
Country
Flag of USUS
Related business
Manufacturer
Unknown
Mission
Spacecraft
Bus & Motor
Unknown
Mass
Unknown
Launch date (UTC)
2000-09-21 (26 years ago)
Launch vehicle
Unknown
Launch site
Air Force Western Test Range (AFWTR)
Object type
Payload
Rocket body
Debris
Shape & HBR
Unknown shape, 0.1 m
Radar Cross Section
Medium (>0.1 m² and <1 m²)

Expand to show TLE details & history
Last TLE update: 4 days ago

TLE from 4 days ago
0 NOAA 16 DEB
1 42422U 00055TS  26169.24564669  .00003462  00000-0  12324-2 0  9999
2 42422  98.7812 275.9432 0009352 285.3356  74.6795 14.34931432527167
Epoch: 2026-06-18T05:53Z
TLE epoch observation values (Epoch: 2026-06-18T05:53:43.874Z)
Latitude
0.00003°
Longitude
-78.98135°
Altitude
776.465 km
Speed
7.467 km/s
True Right ascension
18h 23m 46s
True Declination
0° 00' 00"
Sunlit
Object was in full shadow at epoch
Visualization orbit readout
Latitude
Unknown
Longitude
Unknown
Altitude
Unknown
Speed
Unknown
Apparent Right ascension
Unknown
Apparent Declination
Unknown
Sunlit
N/A
Visualization observer readout
Local Sidereal Time
21:36:12
Azimuth
Unknown
Elevation
Unknown
Doppler factor
Unknown
Orbital elements
Apogee altitude
779.124 km
Perigee altitude
765.749 km
Semi-major axis
7,150.573 km
Eccentricity
0.00094
Inclination
98.7812°
RAAN
275.9432°
Arg. of periapsis
285.3356°
True anomaly
74.78289°
Mean anomaly
74.6795°
Eccentric anomaly
74.73119°
Mean motion
3.58948 °/min
Orbital period
100.29 mins
BSTAR
0.0012324
Loading maneuver chart data...
Computing Atmospheric mass density...
Loading historical data...
Loading historical data...
Loading historical data...
Loading historical data...
Loading historical data...
Loading historical data...
Loading historical data...

Documentation

Showing up to 5 results
|